This demonstration page uses our WeatherBlox Daily Observations layout. Learn more.

Hourly Observations for April 5, 2019

Temp ( °F °C ) Dew Point ( °F °C ) Humidity (%) Winds ( mph kmh ) Pressure ( in mb ) Visibility ( mi km ) Precip ( " mm )
12:15 am 00:15 Clear 43 6.3 42 5.5 95 95 SE 7 11 30.05 1017 10 16.0934 0 0
12:35 am 00:35 Clear 43 6 41 5.1 94 94 SE 7 11 30.04 1017 10 16.0934 0 0
12:55 am 00:55 Clear 44 6.5 43 5.9 96 96 SSE 5 7 30.03 1017 10 16.0934 0 0
1:15 am 01:15 Clear 44 6.5 42 5.4 93 93 SSE 6 9 30.04 1017 10 16.0934 0 0
1:35 am 01:35 Clear 43 6.1 42 5.5 96 96 SE 7 11 30.04 1017 10 16.0934 0 0
1:55 am 01:55 Clear 42 5.6 41 5.2 97 97 SE 7 11 30.04 1017 10 16.0934 0 0
2:15 am 02:15 Clear 42 5.7 42 5.4 98 98 SSE 6 9 30.03 1017 10 16.0934 0 0
2:35 am 02:35 Clear 42 5.8 41 5.2 96 96 S 6 9 30.03 1017 10 16.0934 0 0
2:55 am 02:55 undefined 43 6.3 42 5.8 97 97 SSE 6 9 30.02 1016 10 16.0934 0 0
3:15 am 03:15 undefined 44 6.6 43 6.2 97 97 S 5 7 30.01 1016 10 16.0934 0 0
3:35 am 03:35 Cloudy 44 6.7 43 6.3 97 97 SSE 3 6 30 1016 10 16.0934 0 0
3:55 am 03:55 Cloudy 45 7 44 6.6 97 97 SSE 5 7 30 1016 10 16.0934 0 0
4:15 am 04:15 Cloudy 47 8.3 46 7.9 97 97 S 10 17 29.99 1016 10 16.0934 0 0
4:35 am 04:35 Partly Cloudy 47 8.3 46 7.5 95 95 S 7 11 29.98 1015 10 16.0934 0 0
4:55 am 04:55 Mostly Cloudy 46 7.6 45 7.1 97 97 S 5 7 29.98 1015 10 16.0934 0 0
5:15 am 05:15 Partly Cloudy 45 7 44 6.6 97 97 S 6 9 29.99 1016 10 16.0934 0 0
5:35 am 05:35 Clear 46 7.9 46 7.5 97 97 S 8 13 29.98 1015 10 16.0934 0 0
5:55 am 05:55 Partly Cloudy 47 8.1 46 7.5 96 96 S 7 11 29.98 1015 10 16.0934 0 0
6:15 am 06:15 Mostly Cloudy 47 8.1 46 7.5 96 96 S 3 6 29.98 1015 10 16.0934 0 0
6:35 am 06:35 Mostly Cloudy 45 7.2 45 7 99 99 S 5 7 29.99 1016 7 11.26538 0 0
6:55 am 06:55 Mostly Cloudy 43 6.3 43 5.9 97 97 Calm 30 1016 7 11.26538 0 0
7:15 am 07:15 Partly Cloudy 44 6.5 44 6.5 100 100 SSW 3 6 30 1016 7 11.26538 0 0
7:35 am 07:35 Mostly Cloudy 44 6.9 44 6.9 100 100 SSW 3 6 30 1016 7 11.26538 0 0
7:55 am 07:55 Cloudy with Mist and Fog 44 6.5 44 6.5 100 100 Calm 30.01 1016 5 8.0467 0 0
8:15 am 08:15 Cloudy with Mist and Fog 46 7.5 46 7.5 100 100 Calm 30.01 1016 5 8.0467 0 0
8:35 am 08:35 Cloudy with Mist and Fog 47 8.1 47 8.1 100 100 S 3 6 30 1016 5 8.0467 0 0
8:55 am 08:55 Cloudy 49 9.7 48 9 95 95 S 3 6 29.99 1015 10 16.0934 0 0
9:15 am 09:15 Cloudy 50 10 49 9.3 95 95 Calm 29.97 1015 10 16.0934 0 0
9:35 am 09:35 Cloudy 51 10.5 49 9.6 94 94 S 3 6 29.97 1015 10 16.0934 0 0
9:55 am 09:55 Cloudy 54 12.2 51 10.4 89 89 S 7 11 29.94 1014 10 16.0934 0 0
10:15 am 10:15 Cloudy 57 13.8 51 10.7 82 82 SSW 13 20 29.93 1014 10 16.0934 0 0
10:35 am 10:35 Mostly Cloudy 58 14.3 51 10.5 78 78 SSW 12 19 29.93 1013 10 16.0934 0 0
10:55 am 10:55 Sunny 59 15.1 52 11 77 77 SSW 12 19 29.92 1013 10 16.0934 0 0
11:15 am 11:15 Sunny 62 16.4 51 10.7 69 69 SSW 15 24 29.9 1012 10 16.0934 0 0
11:35 am 11:35 Sunny 62 16.7 51 10.6 67 67 S 10 17 29.88 1012 10 16.0934 0 0
11:55 am 11:55 Sunny 65 18.1 51 10.7 62 62 SSW 13 20 29.87 1012 10 16.0934 0 0
12:15 pm 12:15 Sunny 67 19.4 51 10.7 57 57 S 15 24 29.85 1011 10 16.0934 0 0
12:35 pm 12:35 Sunny 69 20.4 50 10 51 51 S 16 26 29.83 1010 10 16.0934 0 0
12:55 pm 12:55 Sunny 69 20.7 50 9.9 50 50 S 17 28 29.82 1010 10 16.0934 0 0
1:15 pm 13:15 Sunny 70 21.2 51 10.6 51 51 S 18 30 29.81 1009 10 16.0934 0 0
1:35 pm 13:35 Sunny 71 21.4 50 10.2 49 49 SSE 20 31 29.8 1009 10 16.0934 0 0
1:55 pm 13:55 Sunny 72 22.1 50 10.2 47 47 S 17 28 29.78 1008 10 16.0934 0 0
2:15 pm 14:15 Sunny 72 22.3 50 10 46 46 SSE 21 33 29.76 1008 10 16.0934 0 0
2:35 pm 14:35 Sunny 74 23.1 49 9.3 42 42 S 18 30 29.75 1008 10 16.0934 0 0
2:55 pm 14:55 Sunny 74 23.3 48 9.1 41 41 S 25 41 29.74 1007 10 16.0934 0 0
3:15 pm 15:15 Sunny 74 23.5 49 9.3 41 41 S 22 35 29.73 1007 10 16.0934 0 0
3:35 pm 15:35 Partly Cloudy 75 23.7 48 8.9 39 39 S 20 31 29.72 1006 10 16.0934 0 0
3:55 pm 15:55 Mostly Cloudy 76 24.4 49 9.6 39 39 SSE 20 31 29.69 1005 10 16.0934 0 0
4:15 pm 16:15 Mostly Cloudy 75 23.8 49 9.2 40 40 S 22 35 29.69 1005 10 16.0934 0 0
4:35 pm 16:35 Mostly Cloudy 76 24.6 48 8.7 36 36 S 25 41 29.68 1005 10 16.0934 0 0
4:55 pm 16:55 Mostly Cloudy 76 24.3 48 9 38 38 S 22 35 29.67 1005 10 16.0934 0 0
5:15 pm 17:15 Partly Cloudy 76 24.6 48 8.8 37 37 S 25 41 29.67 1005 10 16.0934 0 0
5:35 pm 17:35 Mostly Cloudy 76 24.2 47 8.5 37 37 S 20 31 29.66 1005 10 16.0934 0 0
5:55 pm 17:55 Mostly Cloudy 76 24.4 47 8.6 37 37 S 22 35 29.66 1004 10 16.0934 0 0
6:15 pm 18:15 Partly Cloudy 75 24 48 9.1 39 39 S 22 35 29.67 1005 10 16.0934 0 0
6:35 pm 18:35 Sunny 73 23 50 10.2 44 44 SSE 18 30 29.67 1005 10 16.0934 0 0
6:55 pm 18:55 Sunny 73 22.7 51 10.5 46 46 SSE 22 35 29.68 1005 10 16.0934 0 0
7:15 pm 19:15 Sunny 71 21.8 51 10.5 49 49 SSE 21 33 29.67 1005 10 16.0934 0 0
7:35 pm 19:35 Partly Cloudy 70 20.9 51 10.4 51 51 SSE 17 28 29.69 1005 10 16.0934 0 0
7:55 pm 19:55 Partly Cloudy 68 20 51 10.5 54 54 SSE 15 24 29.7 1006 10 16.0934 0 0
8:15 pm 20:15 Partly Cloudy 66 18.7 51 10.3 58 58 SSE 15 24 29.72 1006 10 16.0934 0 0
8:35 pm 20:35 Partly Cloudy 64 18 50 10.1 60 60 SSE 15 24 29.72 1007 10 16.0934 0 0
8:55 pm 20:55 Clear 64 17.6 51 10.3 62 62 SSE 14 22 29.73 1007 10 16.0934 0 0
9:15 pm 21:15 Clear 64 17.7 51 10.5 63 63 SSE 14 22 29.74 1007 10 16.0934 0 0
9:35 pm 21:35 Clear 64 17.9 51 10.5 62 62 SSE 17 28 29.75 1007 10 16.0934 0 0
9:55 pm 21:55 Clear 64 17.8 51 10.6 63 63 SSE 17 28 29.75 1007 10 16.0934 0 0
10:15 pm 22:15 Clear 63 17.2 51 10.6 65 65 SSE 20 31 29.75 1007 10 16.0934 0 0
10:35 pm 22:35 Clear 62 16.8 52 10.9 68 68 SSE 17 28 29.76 1008 10 16.0934 0 0
10:55 pm 22:55 Clear 62 16.5 52 11.1 71 71 S 17 28 29.77 1008 10 16.0934 0 0
11:15 pm 23:15 Clear 61 16.1 52 11.3 73 73 S 17 28 29.76 1008 10 16.0934 0 0
11:35 pm 23:35 Clear 60 15.8 53 11.5 76 76 S 21 33 29.76 1008 10 16.0934 0 0
11:55 pm 23:55 Clear 60 15.5 53 11.5 77 77 S 17 28 29.77 1008 10 16.0934 0 0

Powered by AerisWeather